Regional Weather Roundup
Issued by NWS Upton, NY

Current Version | Previous Version | Graphics & Text | Print | Product List | Glossary Off
Versions: 1 2 3 4 5 6 7 8 9 10 11 12 13 14 15 16 17 18 19 20 21 22 23 24 25 26 27 28 29 30 31 32 33 34 35 36 37 38 39 40 41 42 43 44 45 46 47 48 49 50

000
ASUS41 KOKX 261605
RWROKX

REGIONAL WEATHER ROUNDUP
NATIONAL WEATHER SERVICE NEW YORK NY
1200 PM EDT TUE AUG 26 2014

NOTE: "FAIR" INDICATES FEW OR NO CLOUDS BELOW 12,000 FEET WITH NO
SIGNIFICANT WEATHER AND/OR OBSTRUCTIONS TO VISIBILITY.

NYZ071-072-176-178-NJZ106-104-261700-
NEW YORK CITY METRO AREA


CITY           SKY/WX    TMP DP  RH WIND       PRES   REMARKS
CENTRAL PARK   SUNNY     85  61  44 NE6       30.18F
LAGUARDIA APRT MOSUNNY   83  64  52 CALM      30.15F
KENNEDY INTL   MOSUNNY   80  68  66 SW9       30.17F
NEWARK/LIBERTY MOSUNNY   84  64  50 CALM      30.15F
BRNX BOT. GARD   N/A     84  63  48 S3        30.16F
TETERBORO      MOSUNNY   85  62  46 SE5       30.14F
$$

NYZ177-179-078>081-261700-
LONG ISLAND NEW YORK

CITY           SKY/WX    TMP DP  RH WIND       PRES   REMARKS
FARMINGDALE    SUNNY     79  68  69 S7        30.16F
ISLIP          MOSUNNY   80  67  64 S8        30.15S
SHIRLEY        SUNNY     80  64  58 S7        30.17S
WESTHAMPTON    SUNNY     80  62  54 VRB5      30.18F
MONTAUK POINT    N/A     79  63  57 CALM      30.18F
$$

NYZ052-065-067-261700-
HUDSON VALLEY

CITY           SKY/WX    TMP DP  RH WIND       PRES   REMARKS
WHITE PLAINS   SUNNY     82  63  52 CALM      30.17S
NEWBURGH       SUNNY     81  63  54 CALM      30.19
MONTGOMERY     SUNNY     83  61  47 VRB5      30.16F
POUGHKEEPSIE   SUNNY     81  63  54 CALM      30.16F
ALBANY         MOSUNNY   82  63  52 NW3       30.15F
$$

NJZ001-105-106-008-010-013-015-019>022-104-261700-
NEW JERSEY

CITY           SKY/WX    TMP DP  RH WIND       PRES   REMARKS
NEWARK/LIBERTY MOSUNNY   84  64  50 CALM      30.15F
TETERBORO      MOSUNNY   85  62  46 SE5       30.14F
CALDWELL       SUNNY     83  60  45 CALM      30.17S
MORRISTOWN     MOSUNNY   84  63  48 CALM      30.17S
SOMERVILLE     SUNNY     84  61  45 CALM      30.15S
LINDEN         FAIR      88  67  50 SE3       30.17S HX  90
SUSSEX         SUNNY     84  61  45 SE6       30.18S
ANDOVER          N/A     81  61  50 CALM      30.19F
TRENTON        SUNNY     83  62  49 N5        30.16S
MILLVILLE      SUNNY     83  62  49 NE9       30.16S
ATLANTIC CITY  SUNNY     82  66  58 VRB6      30.16S
WRIGHTSTOWN    SUNNY     83  68  60 VRB1      30.14S
TOMS RIVER     SUNNY     82  63  51 SE5       30.17S
BELMAR         SUNNY     79  64  61 SE6       30.17S
$$

PAZ047>061-062-071-261700-
EASTERN PENNSYLVANIA

CITY           SKY/WX    TMP DP  RH WIND       PRES   REMARKS
PHILADELPHIA   MOSUNNY   86  62  44 SE6       30.16F
ALLENTOWN      SUNNY     82  61  48 VRB3      30.18F
SCRANTON       SUNNY     79  59  50 VRB3      30.20F
$$

CTZ002-004>006-009-010-012-RIZ004-006-007-MAZ004-011-015-261700-
SOUTHERN NEW ENGLAND
 IN CT

CITY           SKY/WX    TMP DP  RH WIND       PRES   REMARKS
BRADLEY INTL   MOSUNNY   83  64  52 S5        30.15S
HARTFORD       SUNNY     81  63  54 S6        30.15S
DANBURY        SUNNY     80  64  58 CALM      30.18F
WTRBRY/OXFORD  MOSUNNY   81  66  61 SW5       30.21S
BRIDGEPORT     SUNNY     77  68  73 S7        30.16S
MERIDEN        SUNNY     83  66  56 VRB3      30.16S
NEW HAVEN      MOSUNNY   78  68  71 S5        30.17S
CHESTER        FAIR      81  68  65 SW5       30.18S
GROTON         SUNNY     73  65  75 S8        30.16F
WILLIMANTIC    SUNNY     81  66  60 CALM      30.16F

 IN RI

CITY           SKY/WX    TMP DP  RH WIND       PRES   REMARKS
PROVIDENCE     MOSUNNY   79  64  60 S8        30.16F
BLOCK ISLAND   SUNNY     75  61  60 CALM      30.18F
WESTERLY       SUNNY     77  62  59 S7        30.17F

 IN MA

CITY           SKY/WX    TMP DP  RH WIND       PRES   REMARKS
BOSTON         MOSUNNY   81  65  58 SE9       30.13F
WORCESTER      SUNNY     79  63  57 SW5       30.18F
WESTFIELD      SUNNY     81  64  56 CALM      30.15F
PROVINCETOWN   SUNNY     75  57  53 MISG      30.17F
NANTUCKET      SUNNY     69  59  70 SE10      30.18F
$$

ANZ330-335-338-340-345-350-353-355-261700-
COASTAL MARINE OBSERVATIONS


STATION/POSITION TIME  SKY/WX   TEMP    WIND        PRES    VSBY  WAVE
                                AIR SEA DIR/SP/G                  HT/PER
                 (UTC)          (F)     (DEG/KT/KT) (MB)    (MI)  (FT/S)
NY HARB ENTRANCE NOT AVBL
4S FIRE IS       NOT AVBL
23SW MTP         1600                                 N/A           3/ 9
HUDSON CANYON    1600            71 72   90/  8/  8 1021.3          4/ 8
EXECUTION ROCKS  1600            77 77   50/  2/  2   N/A
WESTERN LI SOUND 1600            76      CALM  /  2   N/A           0
CENTRAL LI SOUND 1500            73 74   CALM  /  2   N/A           1
EASTERN LI SOUND 1500            71 69  160/  4/  4   N/A
ROBBINS REEF     1600            73     170/ 12/ 13   N/A
$$


>>>>>>>>>>>>>>>>>>>>>>>>>>>> KEY <<<<<<<<<<<<<<<<<<<<<<<<<<<
>                                                          <
>     SKY/WX - SKY CONDITION/PRESENT WEATHER               <
>     TMP    - TEMPERATURE IN FAHRENHEIT                   <
>     DP     - DEWPOINT IN FAHRENHEIT                      <
>     RH     - RELATIVE HUMIDITY IN PERCENT                <
>     WIND   - DIRECTION AND SPEED IN MPH                  <
>     PRES   - MEAN SEA LEVEL PRESSURE IN INCHES OF HG     <
>     WCI    - WIND CHILL INDEX                            <
>     VSB    - VISIBILITY IN MILES                         <
>     HX     - HEAT INDEX                                  <
>     TC     - TEMPERATURE IN CELSIUS                      <
>     VRB    - VARIABLE WIND DIRECTION                     <
>                                                          <
>>>>>>>>>>>>>>>>>>>>>>>>>>>> KEY <<<<<<<<<<<<<<<<<<<<<<<<<<<




USA.gov is the U.S. government's official web portal to all federal, state and local government web resources and services.